Regional Weather Roundup
Issued by NWS

Home | Current Version | Previous Version | Text Only | Print | Product List | Glossary Off
Versions: 1 2 3 4 5 6 7 8 9 10 11 12 13 14 15 16 17 18 19 20 21 22 23 24 25 26 27 28 29 30 31 32 33 34 35 36 37 38 39 40 41 42 43 44 45 46 47 48 49 50

127
ASUS43 KTOP 252008
RWRKS

WEATHER ROUNDUP FOR KANSAS
NATIONAL WEATHER SERVICE GOODLAND KS
300 PM CDT WED MAY 25 2016

NOTE:  "FAIR" INDICATES FEW OR NO CLOUDS BELOW 12,000 FEET WITH NO
SIGNIFICANT WEATHER AND/OR OBSTRUCTIONS TO VISIBILITY.

KSZ001>006-013>018-027>032-041>047-252100-
NORTHWEST KANSAS

CITY           SKY/WX    TMP DP  RH WIND       PRES   REMARKS
GOODLAND       SUNNY     74  55  51 VRB3      29.93F
HAYS           PTSUNNY   70  64  83 CALM      29.85S
HILL CITY      CLOUDY    72  62  71 CALM      29.89S
RUSSELL        MOSUNNY   77  68  73 E6        29.82F
$$

KSZ061>065-074>080-084>089-252100-
SOUTHWEST KANSAS

CITY           SKY/WX    TMP DP  RH WIND       PRES   REMARKS
DODGE CITY     SUNNY     83  61  47 W9        29.86S
ELKHART          N/A     86  35  16 W8          N/A
GARDEN CITY    SUNNY     80  58  46 NW12      29.89S
GREAT BEND     MOSUNNY   84  66  54 S9        29.80F
LIBERAL        SUNNY     88  43  20 W7        29.89F
PRATT          SUNNY     84  60  44 SW9       29.83S
$$

KSZ066>073-081>083-090>101-252100-
SOUTHEAST KANSAS

CITY           SKY/WX    TMP DP  RH WIND       PRES   REMARKS
CHANUTE        CLOUDY    82  68  62 S17       29.89F
COFFEYVILLE    CLOUDY    81  71  71 S14G21    29.89S
HUTCHINSON     MOSUNNY   88  70  55 S17       29.82S
MEDICINE LODGE   N/A     92  55  28 SW14      29.80S
NEWTON         CLOUDY    81  70  69 SE10        N/A
PARSONS        CLOUDY    81  70  69 S14G20    29.91S
WICHITA INTL   PTSUNNY   88  75  65 S17G24    29.81F HX  97
WICHITA JABRA  PTSUNNY   83  73  72 S18G28    29.83S
WICHITA MCCONL MOSUNNY   85  74  70 S14G24    29.83S
WINFIELD       MOSUNNY   86  73  65 S22G29    29.84F
$$

KSZ007>012-019>026-033>040-048>060-102>105-252100-
NORTHEAST KANSAS

CITY           SKY/WX    TMP DP  RH WIND       PRES   REMARKS
CONCORDIA      CLOUDY    73  66  78 E9        29.85F
EMPORIA        CLOUDY    79  67  66 S17G24    29.87F
LAWRENCE       SUNNY     82  67  60 S14G22    29.87F
MANHATTAN      CLOUDY    81  68  64 S12G22    29.84S
MARYSVILLE     CLOUDY    72  64  78 SE13      29.87S
OLATHE IND     SUNNY     81  65  58 SE16      29.90F
OLATHE EXE     SUNNY     78  64  61 S14       29.89F
SALINA         MOSUNNY   85  71  63 S12       29.82F
TOPEKA BILLARD MOSUNNY   81  66  60 S15       29.87F
TOPEKA FORBES  PTSUNNY   81  66  60 S18       29.87F
$$




USA.gov is the U.S. government's official web portal to all federal, state and local government web resources and services.